Temp
22 22 22 22 22 22 22 22 22 22 22 22 22 22 22 21 21 21 21 21 21 21 21 21 20 20 20 21 20 20 20 20 20 21 21 21 21 21 21 21 21 21
21 21 21 21 22 22 22 22 23 22 22 22 22 22 22 22 21 21 21 21 21 21 21 21 20 20 20 21 21 21 20 20 20 21 21 21 21 21 21 21 21 21
22 21 21 21 22 23 23 23 23 23 22 22 22 22 22 22 22 21 21 21 21 21 21 21 21 20 20 21 21 21 20 20 20 21 21 21 21 21 21 21 21 21
22 21 21 21 22 23 23 23 23 23 22 22 22 22 22 22 22 22 22 21 21 21 21 21 21 21 21 21 21 21 21 20 20 20 21 21 21 21 21 21 21 21
22 22 21 22 22 23 23 23 23 23 23 22 22 22 22 22 22 22 22 22 22 21 21 21 21 21 21 21 21 21 21 21 21 21 21 21 21 21 21 21 21 21
22 22 22 22 22 22 22 23 23 23 23 23 22 22 22 22 22 22 22 22 22 22 22 21 21 21 21 21 21 21 21 21 21 21 21 21 21 21 21 21 21 21
22 22 22 22 22 22 22 22 23 23 23 23 23 22 22 22 23 22 22 22 22 22 22 22 21 21 21 21 21 21 21 21 21 21 21 22 22 22 21 21 21 21
23 23 22 22 22 22 22 22 22 23 23 23 23 23 23 23 23 23 23 23 22 22 22 22 22 22 21 21 21 21 21 21 21 22 22 22 22 22 22 22 21 22
23 23 22 22 22 22 22 22 22 22 22 23 23 23 23 23 23 23 23 23 23 22 22 22 22 22 21 21 21 21 22 21 21 22 22 22 22 22 22 22 22 22
23 23 23 23 22 22 22 22 22 22 22 23 23 23 23 23 23 23 23 23 23 23 23 22 22 22 22 22 22 22 22 22 22 22 22 22 22 22 22 22 22 22
23 23 23 23 23 23 23 23 22 22 22 23 23 23 23 23 23 23 23 23 23 23 23 23 23 23 22 22 22 22 22 22 22 22 22 22 22 22 22 22 22 22
24 23 23 23 23 23 23 23 22 22 22 23 23 23 23 23 24 24 23 23 23 23 23 23 23 23 23 22 22 22 23 23 23 23 23 23 22 22 22 22 22 22
24 24 24 23 23 23 23 23 22 22 22 23 23 23 23 23 24 24 24 24 24 24 23 23 23 23 23 23 23 22 23 23 23 23 23 23 23 23 22 22 22 23
24 24 24 24 24 24 23 23 22 22 22 23 23 23 23 23 23 24 24 24 24 24 24 24 24 24 23 23 23 23 23 23 23 23 23 23 23 23 23 23 22 23
25 24 24 24 24 24 24 23 23 23 23 23 23 23 23 23 23 23 23 24 24 24 24 24 24 24 24 24 24 23 23 23 23 23 23 23 23 23 23 23 23 23
25 25 24 24 24 24 24 24 23 23 23 23 23 23 23 23 23 22 22 23 24 24 24 24 24 24 24 24 24 24 24 23 23 23 23 23 23 23 23 23 23 23
25 25 25 25 24 24 24 24 24 24 24 23 23 23 23 23 23 23 22 22 23 24 24 24 24 24 25 25 24 24 24 24 24 23 23 23 23 23 23 23 23 23
25 25 25 25 25 25 24 24 24 24 24 24 24 24 24 23 23 23 23 22 23 23 24 24 24 25 25 25 25 25 24 24 24 24 24 24 24 24 24 24 24 24
25 25 25 25 25 25 25 25 24 24 24 24 24 24 24 23 23 23 23 23 22 23 23 24 24 25 25 25 25 25 25 24 24 24 24 24 24 24 24 24 24 24
26 25 25 25 25 25 25 25 25 24 24 24 24 24 24 24 23 23 23 23 23 23 23 24 24 25 25 25 25 25 25 24 24 24 24 24 24 24 24 24 24 24
26 25 25 25 25 25 25 25 25 25 24 24 24 24 24 24 24 23 23 23 23 23 23 24 24 24 25 26 25 25 25 24 24 24 24 24 24 24 24 25 25 25
26 25 25 25 25 25 25 25 25 25 24 24 24 24 24 24 24 24 23 23 23 23 23 23 24 24 25 25 25 25 25 24 24 24 24 24 24 24 25 25 25 25
26 25 25 25 25 25 25 25 25 25 24 24 24 24 24 24 24 24 24 23 23 23 23 23 24 24 25 25 25 25 25 25 24 24 24 24 24 25 25 25 25 25
26 26 26 25 25 25 25 25 24 24 25 24 24 24 24 24 24 24 24 24 24 23 23 23 23 24 24 24 25 25 25 24 24 24 24 24 24 24 25 25 25 25
26 26 25 25 25 25 25 25 24 24 25 24 24 24 24 23 23 24 24 24 24 24 23 23 23 23 24 24 24 24 24 24 24 23 24 24 24 24 24 25 25 25
26 26 26 25 25 25 25 24 24 24 24 24 24 24 24 23 23 23 23 24 24 24 24 23 23 23 23 24 24 24 24 24 23 23 23 24 24 24 24 24 25 25
Height
1560 1562 1564 1567 1569 1571 1573 1576 1578 1580 1582 1584 1585 1587 1588 1590 1592 1593 1594 1595 1597 1598 1599 1600 1600 1601 1602 1602 1603 1604 1604 1605 1606 1606 1607 1607 1608 1609 1609 1610 1610 1610
1557 1559 1561 1563 1565 1568 1570 1573 1575 1577 1579 1581 1583 1585 1586 1588 1590 1591 1593 1594 1595 1596 1597 1598 1599 1600 1601 1601 1602 1603 1603 1604 1605 1605 1606 1607 1607 1608 1608 1609 1609 1609
1554 1556 1558 1560 1562 1565 1568 1570 1572 1574 1577 1579 1581 1583 1584 1586 1587 1589 1591 1592 1593 1594 1595 1597 1597 1598 1599 1600 1601 1602 1602 1603 1604 1604 1605 1606 1606 1607 1607 1608 1608 1609
1550 1553 1555 1557 1560 1563 1565 1567 1569 1572 1574 1576 1578 1580 1582 1583 1585 1587 1588 1590 1591 1593 1594 1595 1596 1597 1598 1598 1599 1600 1601 1602 1603 1603 1604 1604 1605 1606 1606 1607 1607 1608
1547 1550 1552 1555 1557 1560 1562 1564 1567 1569 1571 1573 1575 1578 1579 1581 1583 1584 1586 1588 1589 1591 1592 1593 1594 1595 1596 1597 1598 1599 1600 1600 1601 1602 1602 1603 1604 1604 1605 1605 1606 1606
1544 1547 1549 1552 1555 1557 1559 1562 1564 1566 1569 1571 1573 1575 1576 1578 1580 1582 1584 1585 1587 1588 1590 1591 1592 1593 1594 1595 1596 1597 1598 1599 1600 1600 1601 1601 1602 1603 1604 1604 1604 1605
1541 1543 1546 1549 1552 1555 1557 1559 1562 1563 1566 1568 1570 1572 1574 1576 1578 1580 1581 1583 1585 1586 1587 1589 1590 1591 1592 1593 1594 1595 1596 1597 1598 1598 1599 1599 1600 1601 1602 1602 1603 1603
1538 1540 1543 1546 1549 1552 1554 1556 1559 1560 1563 1565 1567 1569 1571 1573 1575 1577 1579 1580 1582 1583 1584 1586 1587 1588 1590 1590 1591 1592 1593 1594 1595 1596 1597 1597 1598 1599 1600 1601 1601 1601
1534 1537 1540 1543 1546 1548 1551 1553 1556 1558 1560 1562 1564 1566 1568 1570 1572 1574 1576 1577 1579 1580 1582 1583 1584 1586 1587 1588 1589 1590 1591 1592 1593 1594 1594 1595 1596 1597 1598 1599 1599 1599
1531 1534 1537 1540 1542 1545 1548 1551 1553 1555 1557 1559 1561 1563 1565 1567 1569 1571 1573 1574 1576 1577 1578 1580 1582 1583 1584 1585 1586 1587 1588 1590 1591 1591 1592 1593 1594 1595 1595 1596 1597 1597
1527 1530 1533 1536 1539 1542 1544 1548 1550 1552 1554 1556 1559 1561 1562 1564 1566 1568 1570 1571 1573 1574 1576 1577 1579 1580 1581 1583 1584 1585 1586 1587 1588 1589 1590 1591 1592 1592 1593 1594 1595 1595
1523 1526 1529 1532 1535 1538 1541 1545 1547 1549 1551 1553 1556 1558 1559 1561 1563 1565 1566 1568 1569 1571 1573 1574 1576 1577 1578 1580 1581 1582 1583 1584 1585 1586 1588 1588 1589 1590 1591 1591 1592 1593
1519 1522 1525 1528 1532 1535 1538 1541 1544 1546 1548 1550 1553 1555 1556 1558 1560 1561 1563 1565 1566 1568 1570 1571 1573 1574 1575 1577 1578 1579 1580 1582 1583 1584 1585 1586 1587 1588 1588 1589 1590 1590
1515 1518 1522 1525 1528 1532 1535 1538 1540 1543 1545 1547 1549 1551 1553 1555 1557 1558 1560 1561 1563 1565 1567 1568 1569 1570 1572 1573 1575 1577 1578 1579 1580 1581 1582 1583 1584 1585 1586 1587 1587 1588
1511 1515 1518 1522 1525 1528 1531 1534 1537 1539 1542 1544 1546 1548 1550 1552 1554 1555 1557 1558 1560 1562 1563 1565 1566 1567 1568 1570 1572 1573 1575 1576 1577 1579 1580 1581 1581 1582 1583 1584 1584 1585
1507 1511 1515 1518 1521 1524 1528 1531 1534 1536 1539 1541 1543 1545 1547 1549 1551 1552 1553 1555 1557 1558 1560 1561 1562 1563 1565 1567 1569 1570 1572 1574 1574 1576 1577 1578 1579 1579 1580 1581 1582 1582
1503 1508 1511 1514 1518 1520 1524 1527 1530 1533 1535 1537 1539 1542 1544 1546 1547 1549 1550 1552 1553 1555 1556 1557 1558 1560 1562 1564 1566 1567 1569 1571 1572 1573 1574 1575 1576 1576 1577 1578 1579 1579
1500 1504 1507 1511 1514 1517 1520 1524 1526 1529 1531 1533 1536 1538 1540 1542 1544 1545 1547 1549 1550 1551 1552 1554 1555 1557 1559 1561 1563 1564 1566 1568 1569 1570 1570 1571 1572 1573 1574 1575 1575 1576
1496 1500 1503 1507 1510 1513 1517 1520 1523 1525 1527 1529 1532 1534 1536 1538 1540 1541 1543 1545 1547 1548 1549 1550 1552 1553 1555 1558 1559 1561 1563 1565 1566 1566 1567 1568 1569 1569 1570 1571 1572 1572
1492 1496 1499 1503 1506 1510 1513 1516 1518 1521 1523 1526 1529 1531 1532 1534 1536 1538 1539 1541 1543 1544 1545 1547 1548 1549 1551 1554 1556 1558 1560 1561 1562 1563 1564 1564 1565 1566 1566 1567 1568 1569
1488 1492 1495 1499 1502 1506 1509 1512 1514 1517 1520 1522 1525 1526 1528 1530 1532 1534 1536 1537 1539 1540 1542 1543 1544 1545 1547 1549 1552 1554 1556 1558 1559 1559 1560 1560 1561 1562 1562 1563 1564 1565
1484 1488 1491 1495 1498 1502 1504 1507 1510 1513 1516 1518 1521 1523 1524 1526 1528 1530 1532 1533 1535 1537 1538 1539 1540 1542 1543 1545 1547 1550 1552 1553 1554 1555 1555 1556 1557 1558 1558 1559 1560 1560
1480 1484 1488 1491 1495 1498 1500 1503 1506 1509 1512 1514 1517 1519 1521 1522 1524 1526 1528 1530 1531 1532 1534 1535 1536 1538 1539 1541 1543 1545 1547 1548 1549 1550 1551 1552 1553 1554 1554 1555 1555 1556
1477 1481 1484 1488 1491 1494 1496 1499 1502 1505 1508 1510 1513 1515 1517 1519 1521 1522 1524 1525 1527 1528 1529 1531 1533 1534 1535 1537 1539 1541 1542 1544 1545 1545 1546 1547 1548 1549 1550 1550 1551 1552
1474 1477 1481 1484 1487 1490 1493 1496 1499 1502 1504 1507 1509 1511 1514 1515 1517 1518 1519 1521 1522 1524 1525 1527 1529 1530 1531 1532 1535 1536 1538 1540 1540 1541 1541 1542 1544 1544 1545 1546 1547 1547
1471 1474 1478 1481 1484 1487 1490 1493 1496 1499 1501 1503 1505 1507 1510 1512 1513 1514 1516 1517 1518 1520 1521 1522 1524 1526 1526 1527 1530 1532 1534 1535 1536 1536 1536 1538 1539 1540 1541 1541 1542 1543
Wind_Speed
33 32 32 32 32 32 31 30 29 27 26 25 24 23 22 21 21 20 19 17 16 15 14 14 13 13 12 12 11 11 10 10 9 8 7 6 5 5 5 5 5 6
32 32 30 29 30 31 30 30 29 28 26 25 24 23 22 20 20 20 20 18 16 16 16 15 14 14 13 13 12 12 11 11 11 10 9 7 6 6 6 6 6 7
32 31 28 26 28 30 29 29 29 28 27 25 24 23 22 21 20 20 20 19 18 17 17 16 15 15 14 14 13 13 12 12 11 11 10 9 8 8 7 7 8 8
32 31 27 27 29 30 28 29 29 28 28 27 25 23 22 22 21 20 20 20 19 18 18 17 16 16 15 15 14 14 13 13 12 12 11 11 10 10 9 9 10 9
32 31 28 28 30 29 29 30 29 29 28 27 26 25 24 23 22 21 21 20 20 19 18 18 18 17 17 16 15 15 15 14 14 13 13 12 11 11 11 11 11 11
33 32 30 29 29 29 30 30 29 29 28 28 27 26 25 24 22 22 22 21 21 20 20 20 19 19 18 17 17 17 16 16 15 15 15 15 14 13 12 12 12 12
35 34 32 30 29 29 29 29 28 28 28 28 27 27 26 24 23 23 23 23 22 21 21 21 21 21 20 19 18 18 19 19 18 18 18 17 16 15 15 13 13 13
37 35 33 32 30 29 29 28 27 27 27 27 28 28 27 25 24 24 24 24 24 23 23 23 23 23 21 21 20 20 20 20 20 20 20 19 17 16 16 15 15 15
38 36 35 33 32 31 30 28 27 26 26 27 27 28 27 26 26 25 25 26 25 25 25 24 24 23 22 22 22 22 22 21 21 21 21 20 19 18 17 17 17 17
38 37 36 34 33 33 31 29 28 27 26 26 26 26 27 27 26 26 26 27 27 27 26 25 25 24 23 24 24 24 24 23 22 22 22 21 20 19 18 18 18 18
39 38 37 36 35 34 32 31 29 28 27 27 26 26 27 27 27 27 27 28 28 27 27 26 26 25 25 25 25 25 25 24 24 24 23 22 22 21 20 19 19 18
40 39 38 37 36 34 33 31 30 29 29 28 27 26 27 27 28 28 28 28 28 27 27 27 27 27 26 26 26 26 26 26 25 25 24 24 23 22 22 21 20 20
41 40 40 38 37 35 33 32 31 30 30 29 27 27 27 28 28 28 29 29 28 28 28 28 28 28 28 28 27 26 27 26 26 26 25 25 24 24 23 23 22 21
42 41 41 39 38 35 34 34 32 31 31 30 28 28 28 29 29 29 29 29 29 28 28 28 29 29 30 30 29 28 28 27 27 26 26 26 26 25 25 25 24 23
42 42 41 40 38 36 36 35 34 33 32 31 30 29 29 29 28 28 29 29 28 28 28 29 30 30 31 31 31 30 29 28 28 28 27 27 27 27 26 26 25 24
42 42 41 40 39 38 36 36 35 33 32 32 31 30 29 29 29 29 28 28 28 28 29 29 30 31 31 32 32 31 30 30 29 29 29 28 28 28 27 27 26 25
42 42 42 41 40 39 37 36 35 34 34 33 32 31 30 30 30 30 29 28 29 29 29 30 31 31 31 31 31 31 31 31 31 31 30 30 30 29 28 28 28 27
41 41 42 42 41 40 38 37 36 36 35 35 33 32 32 31 31 31 31 30 30 30 30 31 32 32 31 30 31 31 31 31 31 32 32 32 31 31 30 30 30 30
41 41 42 42 42 41 39 38 37 37 37 35 34 33 33 33 33 33 32 32 32 32 32 32 32 33 32 31 31 31 31 31 32 32 33 33 33 33 32 32 32 32
40 41 42 42 42 41 40 39 38 38 37 36 35 35 35 35 35 34 34 33 33 33 33 33 33 34 33 32 32 32 31 31 32 33 34 34 35 34 34 34 34 33
41 42 42 42 42 42 41 40 39 39 38 37 37 37 36 36 35 34 34 34 34 34 34 35 35 35 34 33 32 32 32 32 32 33 34 35 35 35 35 35 34 34
42 42 42 42 42 42 41 41 40 39 39 38 38 38 37 36 35 34 34 34 34 34 35 35 36 36 36 35 33 33 33 33 33 34 35 36 36 36 36 36 35 35
41 41 42 41 41 41 41 41 40 40 39 38 38 38 37 36 35 34 34 34 34 34 34 35 36 36 37 36 35 35 34 34 34 35 35 36 37 37 37 37 37 36
40 40 40 40 40 40 41 40 40 39 38 37 36 36 36 36 34 34 34 34 34 34 34 35 35 35 36 36 36 35 35 34 35 35 36 37 37 37 37 38 38 37
39 39 38 38 39 40 40 40 39 38 37 36 36 35 36 35 34 34 35 34 34 34 34 34 34 34 35 35 35 35 35 34 34 35 36 37 37 38 38 38 38 38
38 37 37 37 38 38 38 38 38 37 37 36 36 36 36 35 34 34 35 35 34 34 33 33 33 33 34 35 34 34 34 34 35 36 37 38 38 38 38 39 39 39
Wind_Direction
224 226 226 229 231 232 233 232 232 232 231 233 235 237 238 238 235 231 229 227 225 226 226 223 223 222 221 222 227 233 235 233 234 233 228 222 219 220 231 243 253 256
223 225 225 225 227 228 229 230 230 229 229 229 232 235 237 237 236 233 231 228 226 227 228 227 225 224 224 224 226 231 237 237 237 238 236 228 222 223 229 234 243 254
220 223 221 219 223 225 226 227 228 226 227 228 229 232 235 235 233 232 232 230 228 227 227 228 227 226 226 227 228 230 235 239 238 241 241 234 228 225 226 233 240 248
218 220 218 219 224 225 224 225 227 226 226 228 229 229 231 233 231 230 231 230 228 227 227 227 226 227 228 229 231 231 232 236 238 238 240 239 235 229 226 233 238 242
218 219 218 220 223 224 223 225 226 228 228 228 229 229 228 229 228 228 230 229 228 228 227 227 227 227 228 229 231 233 231 234 238 238 238 240 241 239 236 236 240 243
218 219 219 220 222 222 223 224 226 228 229 229 229 229 228 227 225 226 228 228 228 229 229 229 229 229 230 230 230 233 232 232 237 241 241 240 240 244 244 241 242 245
219 219 219 221 221 220 221 223 224 226 228 228 228 227 227 226 224 224 227 229 230 231 232 232 231 230 232 233 233 234 235 235 236 239 243 243 241 242 245 246 245 247
219 219 219 220 220 219 219 220 221 222 224 226 226 226 225 224 224 223 225 228 230 232 233 233 234 232 232 234 235 236 238 240 240 241 244 248 247 246 247 250 251 253
217 218 218 218 218 218 218 218 219 219 220 222 224 225 224 223 223 223 225 227 229 232 233 233 235 234 233 234 235 238 240 241 243 245 246 249 251 251 252 253 254 255
216 216 217 217 217 217 217 217 219 220 220 220 221 223 224 222 221 222 225 227 228 231 233 233 234 234 234 235 237 239 241 241 243 245 247 249 251 253 255 255 256 256
214 215 216 216 215 217 217 217 219 222 223 221 218 220 222 222 220 221 223 227 228 231 233 234 234 234 234 234 236 239 240 241 243 244 247 250 251 254 255 255 255 255
213 214 215 215 215 216 217 217 217 220 223 222 218 218 221 222 222 221 223 227 229 230 233 235 235 234 234 233 234 237 239 241 242 245 248 250 251 253 255 255 255 256
213 213 214 215 215 215 216 217 216 217 222 223 219 217 219 222 224 224 225 228 230 231 233 235 236 235 235 234 233 235 237 240 242 244 247 249 251 252 254 255 256 257
213 213 214 215 215 214 215 217 216 217 220 223 222 219 219 221 224 227 228 228 230 232 233 235 237 236 235 235 233 233 236 239 242 244 246 249 250 251 252 254 256 258
213 214 215 215 215 215 215 217 218 219 220 223 222 220 219 221 223 226 229 230 229 230 232 234 236 237 236 235 235 234 235 239 242 243 245 247 249 251 253 254 256 257
214 214 215 215 215 215 215 217 219 220 221 223 223 221 221 222 223 225 228 230 230 229 230 232 235 237 237 236 236 236 236 238 241 244 245 246 248 251 253 255 257 257
214 214 215 215 216 216 216 216 218 219 221 222 223 223 223 223 224 226 227 229 231 231 231 233 235 237 237 237 237 237 237 238 241 244 246 248 249 251 253 254 256 258
214 214 215 216 216 217 216 216 217 219 221 222 222 223 224 225 226 227 227 228 231 232 232 234 236 238 237 237 237 237 237 238 241 244 246 248 250 251 252 253 254 256
214 215 216 217 217 217 217 217 218 220 221 222 223 224 225 226 227 228 228 228 230 232 233 234 237 239 238 237 236 237 237 237 240 243 245 248 250 251 251 252 254 256
214 215 216 217 218 218 218 218 218 220 221 223 225 226 227 228 229 230 230 230 230 232 233 233 236 239 239 237 236 237 236 237 239 241 244 246 248 250 251 252 254 255
215 216 217 218 219 219 219 219 219 221 222 224 226 228 229 229 230 231 233 233 233 233 234 234 235 237 239 238 237 237 237 237 238 240 243 245 247 249 251 252 254 255
215 216 218 219 220 221 221 221 222 222 223 224 226 229 231 232 232 233 235 236 236 236 236 236 236 236 238 238 237 238 238 238 239 240 242 244 246 248 250 252 253 254
216 217 218 219 220 221 222 222 223 224 224 225 227 229 232 234 234 234 235 237 238 238 238 238 238 238 238 238 237 238 238 239 240 240 242 243 245 247 249 251 252 253
217 217 217 218 220 221 222 223 224 224 224 225 226 228 231 234 235 235 236 236 238 239 239 239 239 240 240 239 238 238 239 240 241 242 243 244 245 247 248 249 251 253
218 218 217 218 219 221 222 224 224 225 225 225 226 227 229 232 234 236 237 237 238 240 241 242 242 243 243 242 240 240 240 240 242 243 243 244 245 247 248 249 250 251
219 219 218 219 221 222 224 225 226 226 227 228 229 229 231 232 233 236 239 241 241 242 244 244 244 244 245 243 241 240 239 239 241 242 242 243 245 246 248 249 250 251